CAPE
1351 1262 1473 1204 1336 1004 1248 1189 969 1145 816 774 916 767 519 301 309 776 714 978 1358 838 635 582 471 601 920 917 1048 895 766 588 306 361 678 833 793 754 793 754 713 652 648
1516 1417 1359 1392 980 955 1045 1250 1227 472 714 861 631 617 709 586 389 721 462 603 970 1117 979 690 635 389 327 200 294 418 639 1007 747 569 492 307 247 186 281 585 567 528 581
1741 1453 1286 1346 1180 1322 1511 1162 1213 1214 801 274 574 418 611 745 416 294 902 823 671 708 1028 982 684 1091 875 697 461 440 397 222 239 338 300 478 597 466 315 143 401 485 364
1635 1590 1301 1347 1343 1300 964 877 798 292 701 156 435 274 586 620 452 573 222 823 1181 1176 518 453 709 999 916 1113 1149 1119 1118 955 879 730 674 690 582 593 622 604 486 269 225
1332 1668 1330 1359 1561 993 696 533 667 285 610 277 369 301 406 98 218 473 604 653 546 803 1251 407 347 578 804 897 1158 1395 1319 1219 1133 769 712 596 670 740 503 360 267 196 115
1676 1798 1385 1497 1172 631 542 716 927 329 73 216 75 259 562 598 42 61 310 512 351 302 407 506 1270 711 384 486 681 1181 1348 1173 1207 1174 1030 853 696 575 274 231 123 45 10
1505 1408 1245 1562 1135 756 718 837 728 315 43 37 6 87 32 12 124 89 137 205 212 322 375 469 481 1277 815 512 307 254 521 757 998 994 1147 1006 602 466 247 55 25 0 0
1776 1305 1456 1065 965 1075 1252 908 1182 385 78 58 54 56 11 2 32 111 64 140 256 485 443 547 449 434 511 646 924 508 306 390 628 707 835 847 775 498 150 12 0 0 0
1541 1765 1756 942 1324 1370 1112 1169 1038 1020 504 0 318 291 79 67 131 53 278 321 445 419 392 544 599 765 864 602 669 601 236 164 284 330 135 283 744 494 84 0 0 0 0
1264 1592 1377 1632 1678 845 1314 1332 1117 1605 1057 17 0 17 320 294 485 250 221 374 527 483 512 484 574 851 979 1033 711 285 371 275 216 217 0 67 532 267 36 0 0 0 0
1214 1056 1447 1492 1651 1428 1456 1478 1623 1694 595 748 4 0 209 164 253 517 549 487 401 452 500 750 548 615 1035 1024 838 971 547 136 81 85 0 12 474 222 21 0 0 0 0
1160 1251 1233 1544 1626 1513 1557 1598 1529 1608 1716 1198 512 49 47 160 510 448 424 507 551 458 441 414 516 561 671 780 1060 739 618 442 113 53 40 0 171 181 40 0 0 0 0
271 1288 1412 1614 1637 1428 1724 1816 2050 1606 1671 1191 1254 563 79 202 259 213 250 277 370 366 374 465 439 595 718 785 851 780 645 451 262 102 74 0 1 103 50 0 0 0 0
145 1646 1680 1357 1361 1716 1324 1638 1707 1487 1522 1635 1778 1744 1270 548 659 516 409 417 382 312 358 613 411 557 639 721 707 405 583 470 374 244 110 63 0 1 21 12 0 0 0
251 373 561 1343 1259 1110 1360 1860 1498 1584 1637 1912 1910 1948 1584 893 822 744 677 531 405 369 436 770 710 782 688 529 581 677 746 862 533 429 285 141 49 15 0 6 0 0 0
899 824 859 804 1068 1046 1309 1705 1385 1782 2126 1662 1819 2168 1940 1340 1303 1267 1158 926 711 678 698 604 529 594 701 662 789 757 835 620 596 434 318 205 119 63 13 0 0 0 0
1418 1329 1183 1102 788 859 1380 1843 1762 1368 1948 1951 1928 1974 1998 2072 1662 1189 1181 1305 1195 944 979 977 912 756 1568 1360 1318 1531 1853 1887 1382 740 481 275 151 64 18 0 0 0 0
1918 1808 1833 1506 1231 808 1250 1748 1710 1091 1324 1470 1788 2194 2213 2122 2772 2691 2051 1749 1384 1677 1637 1698 1673 1631 1721 1756 2103 2795 2594 1989 1942 1866 1517 982 518 236 37 0 0 0 0
1979 1918 2072 2123 1792 1272 1141 1619 1930 1804 1128 1448 1810 2253 2370 2599 2835 2586 2948 2405 1988 2133 2218 2303 2087 1521 1196 1334 1711 1997 2141 2015 2158 2131 1802 1330 870 412 171 8 0 0 0
2120 2137 2314 2370 2148 1828 1320 1053 1451 1895 1923 1572 1706 2045 2146 2402 2795 3072 3069 3153 2993 2685 2018 1912 1756 1751 1582 1640 1585 1703 1922 1672 1852 2046 2298 2653 1766 1426 766 244 15 0 0
2178 2316 2455 2452 2302 1927 1451 1276 1105 1365 1819 1836 1726 1920 2158 2283 2232 2709 2620 2608 2995 2689 2203 1848 1608 1247 1013 1193 1963 1840 1956 1919 1979 2948 3249 3045 2682 2481 2160 434 339 80 0
2231 2406 2413 2474 2347 1758 952 773 1067 1038 1130 1402 1696 2087 2258 2023 1911 1864 1891 1870 1812 2120 2768 2334 1842 1632 1886 2021 1962 1666 2146 2182 2960 3151 2904 2854 2419 2323 1559 911 44 288 59
2419 2367 2551 2559 2528 2519 1098 595 440 972 1175 1313 1493 1765 1705 770 1225 2040 1999 1696 1583 1439 1466 1758 1772 1891 1907 2317 2471 2461 3121 3540 3453 3240 2943 2677 2484 1799 490 52 0 0 0
2452 2493 2672 2744 2717 2617 1910 1075 572 761 854 1056 1436 1816 2027 1502 1230 1478 1996 2184 2176 2387 2398 2031 2168 2403 2683 2946 3359 2852 3090 3076 3004 3049 2747 2182 1652 987 28 2 0 0 0
2858 2852 3051 2885 2825 2641 1892 1366 1055 1247 1156 1435 1905 1959 1928 1959 2244 2152 1888 1500 1509 1751 1286 1106 1148 1270 1359 1335 1508 2320 2709 2805 2993 2897 1937 1889 850 237 0 2 2 0 0
2836 2442 2679 3020 2981 2892 2583 1534 1179 1454 1272 1275 1615 1986 1809 1895 2162 2099 2198 2229 2172 2422 2402 2292 2503 2724 2419 2836 2843 2566 3318 3381 3248 2541 1517 1449 333 0 0 3 2 2 1
CIN
-1 -3 -0 -4 -1 -5 -0 -12 -2 -3 -3 -1 -2 -3 -2 -1 -4 -7 -36 -38 -6 -30 -47 -44 -53 -34 -0 -0 -0 -0 -1 -6 -26 -13 -0 -0 -0 -0 -0 -0 -0 -0 -0
-0 -1 -1 -2 -1 -22 -30 -2 -1 -30 -5 -16 -1 -29 -25 -2 -5 -1 -30 -65 -45 -24 -29 -47 -54 -71 -68 -94 -60 -33 -4 -0 -1 -1 -4 -18 -22 -26 -20 -0 -0 -4 -1
-7 -1 -1 -2 -0 -1 -2 -8 -8 -6 -3 -70 -23 -1 -3 -1 -1 -13 -20 -26 -68 -77 -48 -41 -50 -17 -16 -14 -47 -40 -42 -60 -66 -25 -22 -4 -1 -5 -12 -36 -5 -0 -9
-0 -2 -1 -4 -3 -1 -27 -3 -3 -39 -6 -47 -17 -31 -8 -6 -14 -1 -18 -2 -16 -15 -101 -98 -57 -26 -16 -0 -0 -0 -0 -0 -0 -0 -0 -0 -0 -0 -0 -0 -4 -33 -39
-9 -0 -0 -1 -5 -2 -1 -2 -23 -41 -6 -27 -5 -25 -21 -76 -14 -8 -1 -1 -5 -8 -13 -115 -123 -78 -44 -25 -3 -0 -0 -0 -0 -3 -2 -10 -1 -0 -6 -15 -19 -30 -49
-1 -2 -0 -1 -2 -3 -4 -6 -3 -30 -70 -17 -70 -21 -6 -17 -24 -84 -16 -8 -18 -29 -27 -40 -22 -67 -133 -101 -63 -9 -0 -0 -0 -0 -1 -2 -4 -10 -65 -61 -86 -123 -41
-0 -10 -2 -2 -1 -3 -17 -5 -3 -9 -3 -47 -14 -56 -65 -42 -74 -71 -58 -42 -51 -44 -38 -41 -66 -18 -70 -119 -147 -164 -111 -63 -16 -10 -0 -3 -40 -61 -105 -162 -170 -0 -0
-0 -1 -2 -12 -10 -0 -0 -4 -3 -31 -25 -44 -81 -42 -2 -3 -142 -77 -122 -68 -46 -11 -29 -48 -65 -94 -86 -58 -47 -158 -210 -188 -133 -107 -69 -51 -41 -68 -141 -133 -0 -0 -0
-0 -0 -4 -20 -14 -5 -1 -3 -6 -3 -18 -0 -34 -45 -29 -48 -30 -67 -35 -44 -22 -41 -51 -48 -65 -62 -70 -119 -144 -174 -244 -275 -237 -211 -283 -194 -60 -93 -247 -0 -0 -0 -0
-1 -2 -0 -0 -1 -7 -0 -1 -2 -5 -9 -10 -0 -30 -18 -31 -12 -8 -21 -27 -38 -59 -77 -91 -72 -95 -107 -117 -132 -225 -227 -281 -316 -307 -0 -406 -156 -234 -370 -0 -0 -0 -0
-0 -0 -0 -0 -0 -4 -1 -0 -3 -10 -3 -7 -3 -1 -22 -15 -19 -14 -3 -8 -45 -56 -83 -92 -96 -96 -88 -89 -111 -117 -215 -383 -441 -463 -8 -564 -210 -304 -457 -0 -0 -0 -0
-1 -0 -1 -0 -0 -0 -1 -1 -1 -11 -9 -7 -8 -12 -53 -21 -6 -5 -8 -13 -27 -58 -94 -106 -116 -141 -117 -100 -101 -161 -221 -298 -466 -541 -562 -0 -398 -358 -464 -0 -0 -0 -0
-6 -9 -6 -0 -0 -6 -0 -1 -4 -0 -3 -3 -13 -8 -50 -33 -48 -73 -81 -67 -60 -78 -100 -104 -126 -123 -118 -116 -129 -176 -248 -315 -407 -497 -531 -0 -75 -436 -471 -0 -0 -0 -0
-16 -7 -10 -1 -0 -1 -0 -0 -1 -1 -2 -3 -0 -7 -3 -20 -17 -56 -88 -97 -101 -104 -87 -95 -142 -129 -141 -165 -204 -289 -243 -318 -340 -396 -466 -528 -0 -77 -514 -488 -0 -0 -0
-4 -5 -15 -3 -1 -0 -1 -2 -1 -9 -12 -1 -0 -0 -3 -19 -15 -42 -76 -121 -147 -154 -122 -71 -119 -139 -175 -208 -207 -217 -203 -191 -288 -335 -377 -458 -519 -563 -80 -510 -0 -0 -0
-5 -3 -19 -34 -23 -17 -0 -0 -1 -0 -3 -7 -0 -2 -0 -12 -12 -17 -47 -81 -130 -149 -149 -134 -135 -143 -171 -188 -187 -231 -231 -265 -282 -339 -334 -349 -386 -410 -448 -0 -0 -0 -0
-1 -6 -9 -35 -57 -58 -7 -0 -1 -1 -3 -0 -4 -1 -1 -1 -14 -46 -47 -53 -90 -135 -137 -127 -124 -156 -104 -146 -168 -164 -146 -133 -161 -215 -282 -311 -334 -340 -341 -0 -0 -0 -0
-4 -5 -11 -16 -37 -80 -34 -2 -2 -20 -11 -10 -2 -1 -0 -0 -2 -3 -26 -57 -85 -62 -87 -113 -121 -125 -125 -104 -74 -30 -52 -103 -97 -92 -130 -207 -273 -315 -336 -0 -0 -0 -0
-16 -23 -12 -6 -20 -49 -63 -23 -4 -3 -42 -21 -6 -1 -1 -0 -1 -2 -1 -20 -43 -45 -56 -55 -84 -105 -134 -114 -100 -79 -60 -74 -50 -37 -58 -120 -184 -255 -291 -58 -0 -0 -0
-29 -32 -21 -14 -20 -38 -67 -98 -59 -24 -15 -33 -20 -6 -6 -1 -0 -0 -1 -2 -15 -36 -77 -84 -105 -97 -98 -75 -66 -54 -33 -27 -11 -3 -7 -7 -75 -78 -151 -241 -182 -0 -0
-28 -33 -32 -22 -30 -43 -71 -112 -120 -88 -54 -49 -46 -28 -17 -16 -19 -5 -6 -13 -10 -24 -52 -80 -102 -135 -148 -125 -56 -61 -59 -64 -45 -16 -1 -7 -13 -2 -5 -177 -174 -337 -0
-33 -35 -36 -37 -44 -70 -130 -159 -143 -133 -121 -98 -85 -62 -48 -47 -87 -113 -111 -127 -133 -99 -43 -74 -129 -156 -132 -106 -101 -141 -75 -66 -15 -2 -1 -1 -2 -0 -5 -36 -474 -208 -389
-33 -45 -49 -44 -52 -70 -140 -193 -206 -134 -116 -124 -120 -100 -95 -143 -137 -93 -130 -172 -212 -259 -290 -234 -247 -217 -208 -145 -130 -142 -45 -6 -0 -1 -1 -2 -0 -32 -268 -308 -0 -0 -0
-51 -50 -57 -57 -57 -65 -112 -178 -231 -182 -166 -162 -123 -113 -116 -140 -151 -124 -87 -93 -133 -136 -166 -244 -251 -223 -160 -106 -57 -97 -78 -70 -60 -28 -26 -59 -90 -161 -261 -0 -0 -0 -0
-37 -44 -44 -58 -65 -88 -144 -202 -223 -165 -173 -168 -135 -141 -145 -148 -142 -147 -159 -227 -255 -241 -266 -320 -349 -341 -333 -328 -292 -171 -115 -94 -68 -69 -180 -112 -282 -498 -0 -0 -0 -0 -0
-53 -60 -53 -46 -69 -85 -120 -214 -245 -143 -157 -173 -164 -180 -210 -205 -188 -207 -187 -198 -246 -224 -207 -212 -187 -167 -225 -172 -153 -186 -54 -26 -32 -107 -270 -207 -500 -0 -0 -0 -0 -0 -0
Wind_Speed
18 16 17 15 18 19 19 18 19 18 15 11 17 12 14 10 17 23 22 22 21 20 20 19 18 18 17 16 16 16 17 16 15 15 14 12 11 11 10 9 9 9 10
18 19 18 16 17 19 14 15 14 15 17 10 18 15 14 7 12 13 22 22 21 20 19 19 18 17 17 17 16 15 15 14 14 13 13 12 11 11 11 10 10 10 9
19 18 18 16 18 18 18 20 17 18 20 16 18 19 19 14 21 18 22 21 21 20 19 18 17 16 16 16 15 14 13 13 12 11 11 11 11 11 11 11 10 10 11
17 17 18 18 15 15 19 18 19 13 16 23 17 19 20 21 20 19 19 19 22 20 19 18 17 16 16 15 14 14 13 12 11 11 10 10 10 10 10 10 10 11 12
18 16 17 18 17 17 19 21 18 23 12 19 22 19 17 16 20 22 18 17 17 17 19 18 17 17 16 15 15 14 13 12 12 11 11 10 10 10 10 11 12 13 15
20 19 17 19 18 17 12 14 10 21 14 19 17 15 21 19 19 19 20 19 17 16 18 16 17 16 16 16 15 14 13 13 12 11 11 11 11 12 13 14 15 17 18
20 20 18 20 17 17 18 19 19 18 17 18 18 18 18 19 18 20 19 18 18 19 16 16 15 18 17 16 16 15 14 13 12 12 12 12 12 14 14 15 16 18 19
21 20 20 19 19 19 18 19 18 18 18 20 20 20 21 20 21 20 17 17 16 17 19 17 15 16 15 15 17 16 14 13 13 13 12 13 14 14 15 15 16 17 18
22 19 19 15 19 18 19 19 18 19 17 20 17 17 15 18 22 19 18 19 16 17 16 18 17 17 16 15 16 15 14 14 13 12 12 12 13 13 14 14 14 15 15
23 16 21 20 19 19 17 19 19 16 19 19 20 18 17 14 17 20 20 19 19 18 18 17 18 17 16 15 15 13 15 13 12 11 11 11 11 11 11 12 13 13 14
24 22 18 18 18 18 17 18 17 18 18 16 20 20 19 19 19 15 20 21 19 19 18 18 15 15 16 14 12 12 13 12 10 9 8 8 8 8 8 9 10 10 9
16 22 18 19 19 19 16 19 20 20 18 18 17 20 19 19 19 19 17 18 17 17 17 15 15 13 12 12 12 11 10 9 8 6 6 5 4 4 4 4 5 3 4
18 9 15 17 17 21 15 15 21 21 21 21 21 20 20 19 18 18 17 17 16 15 15 14 13 13 12 11 10 9 8 6 4 2 1 0 1 1 3 4 4 4 2
16 5 10 17 21 17 20 20 21 22 21 21 21 22 19 21 20 20 19 17 16 15 14 14 13 13 11 10 8 6 4 3 2 2 4 4 5 5 6 6 5 5 4
24 6 13 19 21 20 22 17 23 23 17 22 22 23 22 22 21 21 20 19 18 15 13 12 11 11 9 8 6 3 1 1 3 5 7 8 9 10 11 10 10 9 8
29 18 11 23 22 21 22 24 24 23 24 24 24 24 24 23 22 22 21 20 18 16 14 13 11 9 7 8 7 2 4 6 7 8 9 10 10 12 13 14 14 13 12
25 8 29 25 23 20 18 21 26 26 22 26 26 25 25 25 25 24 23 21 18 16 16 15 14 13 10 5 6 4 5 7 9 10 10 10 11 13 13 14 14 15 16
10 15 9 30 24 20 16 16 21 24 24 27 27 28 28 28 28 27 25 24 21 19 18 17 16 14 10 7 5 4 6 8 10 11 10 9 9 12 13 13 11 12 13
11 9 8 13 11 14 14 13 16 23 26 25 29 29 29 30 30 29 28 25 20 15 14 14 15 13 11 8 5 4 6 8 10 11 11 11 13 14 15 15 13 13 12
13 12 11 9 9 10 10 14 10 15 22 21 26 29 31 31 30 30 28 26 23 22 21 19 16 13 9 5 3 4 7 12 13 15 20 21 21 19 18 16 14 14 11
15 14 13 11 11 12 11 10 8 5 12 21 25 25 26 29 31 32 30 26 23 20 21 19 19 19 16 14 15 12 11 12 14 18 19 23 23 22 24 20 16 15 13
17 15 14 13 14 16 14 12 9 8 14 18 20 20 26 31 28 30 30 30 29 27 27 26 25 23 21 20 19 18 16 14 14 17 18 19 24 24 29 29 31 21 12
19 17 16 14 17 20 18 17 20 18 19 20 21 18 20 27 25 27 27 27 27 26 25 24 26 24 25 18 16 12 9 11 12 13 15 18 25 26 34 33 34 26 14
20 19 18 17 15 21 24 23 19 20 23 26 23 18 21 29 35 35 32 30 28 25 20 19 18 17 12 6 6 11 12 11 11 12 20 21 25 28 32 35 36 30 21
24 22 22 22 16 15 17 23 17 16 17 19 23 24 28 30 36 32 30 31 32 32 32 28 25 23 20 16 12 10 11 11 11 17 19 20 25 27 31 33 32 31 27
24 24 24 25 21 21 16 18 19 16 16 17 21 23 25 30 36 34 29 29 29 28 27 28 24 11 11 11 10 9 11 12 15 19 18 20 23 24 25 27 30 28 27
Wind_Direction
156 163 141 149 141 123 117 92 137 158 136 166 156 106 159 180 152 97 105 123 127 128 132 136 136 132 143 151 142 131 118 113 114 115 120 126 130 130 133 133 127 121 102
153 134 133 151 149 124 201 171 195 204 160 212 149 184 99 256 198 168 110 125 131 135 138 142 147 148 146 144 140 140 138 135 127 127 125 122 124 124 122 118 108 112 113
144 155 141 154 137 138 154 152 185 171 141 34 172 160 141 191 128 162 115 126 131 136 140 149 152 155 148 149 149 145 144 145 142 139 137 132 125 119 112 108 104 97 86
170 162 150 139 169 168 153 164 163 218 164 120 168 171 151 137 142 149 157 152 126 132 141 139 147 150 150 146 147 150 154 150 144 142 141 136 127 118 110 102 92 81 67
160 180 165 155 163 169 158 146 96 151 206 177 146 153 172 182 148 135 153 173 164 148 138 135 135 141 143 145 154 158 157 152 150 148 141 134 122 110 103 92 83 73 60
152 163 168 155 165 169 205 197 208 143 141 160 194 177 128 156 158 153 148 167 168 178 152 149 142 147 145 140 149 154 152 151 150 140 131 120 109 94 85 77 69 60 52
164 162 167 155 172 170 178 167 160 166 178 189 173 166 165 151 169 154 166 177 159 155 162 160 173 142 146 146 140 141 143 139 131 116 106 101 91 81 78 71 63 54 47
174 175 160 152 163 156 167 168 178 183 168 166 173 164 144 146 147 159 183 182 184 166 146 152 168 157 163 149 130 128 126 122 113 105 98 85 76 74 70 68 69 62 55
168 203 190 93 155 180 135 161 178 178 183 159 198 178 182 152 128 162 162 169 178 171 166 146 145 144 144 149 124 127 121 110 104 93 84 76 69 68 65 62 62 55 59
169 128 186 186 165 166 198 170 171 213 168 114 148 168 183 193 164 137 146 154 160 158 145 159 132 137 135 139 130 126 105 107 104 98 94 88 85 75 69 58 50 50 45
190 174 140 139 146 141 135 205 215 206 194 203 143 135 160 150 148 178 149 126 146 142 140 133 142 141 129 133 138 134 118 117 114 109 113 103 98 84 74 58 47 42 47
141 174 143 151 155 177 125 160 185 196 210 219 210 165 150 162 139 167 171 151 166 161 148 146 139 149 155 152 146 139 127 130 131 116 110 102 94 76 63 49 46 52 45
156 118 143 147 149 179 130 150 190 203 188 192 198 184 183 192 199 192 199 190 189 186 158 159 159 153 161 163 172 136 130 132 135 150 107 129 358 330 331 343 336 357 346
153 68 116 155 178 146 169 167 168 190 173 187 197 203 219 194 193 196 198 209 199 194 179 163 184 181 159 152 133 121 162 149 187 254 265 278 282 281 301 280 278 281 280
248 320 144 164 175 172 182 155 201 192 225 196 200 197 206 209 203 206 205 204 203 190 186 143 152 129 162 171 118 143 210 339 287 295 290 288 282 279 285 286 279 279 276
244 270 143 182 181 179 178 185 189 181 206 204 199 187 209 217 226 218 217 213 201 195 204 206 199 194 175 202 220 263 282 293 309 303 302 299 295 292 290 287 283 275 271
257 273 220 187 185 173 166 173 198 219 174 201 217 226 220 224 228 229 220 207 202 201 212 217 221 228 225 218 253 285 317 331 324 321 310 306 305 307 305 297 286 279 270
252 269 179 201 186 176 164 162 179 191 190 205 208 216 223 227 220 229 232 229 223 222 225 233 233 237 237 244 270 310 335 343 347 344 340 336 328 325 330 325 312 300 285
221 211 205 179 173 171 169 166 171 188 197 194 210 211 219 228 232 233 234 228 218 205 207 219 234 238 248 257 279 325 353 348 351 332 326 325 331 337 334 328 321 313 305
220 231 246 238 196 182 178 178 175 178 190 189 201 214 222 223 223 227 225 225 224 228 232 233 234 236 239 252 289 312 343 351 344 350 356 358 7 358 349 346 340 338 332
226 235 243 236 202 191 191 192 198 227 183 192 202 202 207 219 226 234 233 226 224 221 228 231 236 246 250 257 267 285 294 310 338 6 0 5 1 359 1 1 356 354 359
234 233 232 227 204 195 197 199 207 213 192 193 196 198 211 226 221 223 226 229 230 234 238 241 247 249 254 260 268 277 284 301 307 3 7 359 6 3 5 7 3 0 353
239 232 238 234 205 199 198 196 194 195 196 198 201 201 205 218 214 219 222 224 228 228 229 234 243 246 256 260 266 279 302 315 324 344 358 0 8 9 8 6 4 4 12
238 241 245 244 226 202 200 199 199 201 205 210 208 207 211 221 233 239 235 232 229 226 224 226 231 240 247 278 320 285 297 313 326 351 10 5 13 13 12 12 13 23 39
249 249 253 253 235 236 208 202 205 208 212 213 213 216 220 225 233 228 227 232 236 239 243 240 240 244 249 257 272 298 324 337 333 1 9 11 14 16 19 21 29 34 48
250 253 255 257 254 259 248 210 207 210 215 214 214 217 220 223 231 229 223 226 231 232 236 244 243 318 323 330 322 327 341 343 352 360 11 11 14 19 25 34 39 52 63